Time,TemperatureF,DewpointF,PressureIn,WindDirection,WindDirectionDegrees,WindSpeedMPH,WindSpeedGustMPH,Humidity,HourlyPrecipIn,Conditions,Clouds,dailyrainin,SoftwareType,DateUTC
2013-09-04 00:00:00,84.3,49.5,29.70,SW,235,0.0,0.0,30,0.00,,,0.00,Wunderground v.1.15,2013-09-04 07:00:00,
2013-09-04 00:05:00,84.0,49.2,29.70,SW,232,0.0,0.0,30,0.00,,,0.00,Wunderground v.1.15,2013-09-04 07:05:00,
2013-09-04 00:10:00,83.8,49.9,29.70,SW,227,0.0,0.0,31,0.00,,,0.00,Wunderground v.1.15,2013-09-04 07:10:00,
2013-09-04 00:15:00,83.8,49.9,29.71,SW,229,0.0,0.0,31,0.00,,,0.00,Wunderground v.1.15,2013-09-04 07:15:00,
2013-09-04 00:20:00,83.8,49.9,29.71,SW,231,0.0,0.0,31,0.00,,,0.00,Wunderground v.1.15,2013-09-04 07:20:00,
2013-09-04 00:25:00,83.8,49.9,29.71,South,186,0.0,0.0,31,0.00,,,0.00,Wunderground v.1.15,2013-09-04 07:25:00,
2013-09-04 00:30:00,83.8,49.1,29.71,WNW,283,0.0,0.0,30,0.00,,,0.00,Wunderground v.1.15,2013-09-04 07:30:00,
2013-09-04 00:35:00,83.6,49.8,29.71,WNW,283,0.0,0.0,31,0.00,,,0.00,Wunderground v.1.15,2013-09-04 07:35:00,
2013-09-04 00:40:00,83.2,50.3,29.71,West,270,0.0,0.0,32,0.00,,,0.00,Wunderground v.1.15,2013-09-04 07:40:00,
2013-09-04 00:45:00,82.8,49.9,29.72,West,262,0.0,0.0,32,0.00,,,0.00,Wunderground v.1.15,2013-09-04 07:45:00,
2013-09-04 00:50:00,82.4,50.4,29.72,West,262,0.0,0.0,33,0.00,,,0.00,Wunderground v.1.15,2013-09-04 07:50:00,
2013-09-04 00:55:00,82.2,50.2,29.72,WSW,250,0.0,0.0,33,0.00,,,0.00,Wunderground v.1.15,2013-09-04 07:55:00,
2013-09-04 01:00:00,82.2,49.4,29.71,WSW,250,0.0,0.0,32,0.00,,,0.00,Wunderground v.1.15,2013-09-04 08:00:00,
2013-09-04 01:05:00,82.4,49.6,29.71,SSW,213,0.0,0.0,32,0.00,,,0.00,Wunderground v.1.15,2013-09-04 08:05:00,
2013-09-04 01:15:00,83.0,49.2,29.71,SSW,208,0.0,2.0,31,0.00,,,0.00,Wunderground v.1.15,2013-09-04 08:15:00,
2013-09-04 01:20:00,83.2,49.4,29.71,SW,223,0.0,0.0,31,0.00,,,0.00,Wunderground v.1.15,2013-09-04 08:20:00,
2013-09-04 01:25:00,83.2,49.4,29.71,SSW,202,0.0,0.0,31,0.00,,,0.00,Wunderground v.1.15,2013-09-04 08:25:00,
2013-09-04 01:30:00,83.0,49.2,29.71,South,184,0.0,0.0,31,0.00,,,0.00,Wunderground v.1.15,2013-09-04 08:30:00,
2013-09-04 01:35:00,83.0,49.2,29.71,South,185,0.0,0.0,31,0.00,,,0.00,Wunderground v.1.15,2013-09-04 08:35:00,
2013-09-04 01:40:00,82.8,49.1,29.71,SW,227,0.0,0.0,31,0.00,,,0.00,Wunderground v.1.15,2013-09-04 08:40:00,
2013-09-04 01:45:00,82.8,49.9,29.71,SW,214,0.0,0.0,32,0.00,,,0.00,Wunderground v.1.15,2013-09-04 08:45:00,
2013-09-04 01:50:00,82.4,49.6,29.71,SW,214,0.0,0.0,32,0.00,,,0.00,Wunderground v.1.15,2013-09-04 08:50:00,
2013-09-04 01:55:00,82.2,50.2,29.71,SSW,213,0.0,0.0,33,0.00,,,0.00,Wunderground v.1.15,2013-09-04 08:55:00,
2013-09-04 02:00:00,82.4,50.4,29.72,SSW,194,0.0,0.0,33,0.00,,,0.00,Wunderground v.1.15,2013-09-04 09:00:00,
2013-09-04 02:05:00,82.8,50.8,29.72,SW,217,0.0,0.0,33,0.00,,,0.00,Wunderground v.1.15,2013-09-04 09:05:00,
2013-09-04 02:10:00,82.8,50.8,29.72,SW,217,0.0,0.0,33,0.00,,,0.00,Wunderground v.1.15,2013-09-04 09:10:00,
2013-09-04 02:15:00,82.4,50.4,29.72,SW,217,0.0,0.0,33,0.00,,,0.00,Wunderground v.1.15,2013-09-04 09:15:00,
2013-09-04 02:20:00,82.0,50.1,29.72,West,270,0.0,0.0,33,0.00,,,0.00,Wunderground v.1.15,2013-09-04 09:20:00,
2013-09-04 02:25:00,81.6,50.5,29.72,West,270,0.0,0.0,34,0.00,,,0.00,Wunderground v.1.15,2013-09-04 09:25:00,
2013-09-04 02:30:00,81.1,50.9,29.72,West,270,0.0,0.0,35,0.00,,,0.00,Wunderground v.1.15,2013-09-04 09:30:00,
2013-09-04 02:35:00,80.5,51.1,29.72,West,270,0.0,0.0,36,0.00,,,0.00,Wunderground v.1.15,2013-09-04 09:35:00,
2013-09-04 02:40:00,80.3,50.9,29.72,East,92,0.0,0.0,36,0.00,,,0.00,Wunderground v.1.15,2013-09-04 09:40:00,
2013-09-04 02:45:00,80.3,50.1,29.72,East,92,0.0,0.0,35,0.00,,,0.00,Wunderground v.1.15,2013-09-04 09:45:00,
2013-09-04 02:50:00,80.3,50.9,29.72,East,92,0.0,0.0,36,0.00,,,0.00,Wunderground v.1.15,2013-09-04 09:50:00,
2013-09-04 02:55:00,80.3,51.7,29.72,East,92,0.0,0.0,37,0.00,,,0.00,Wunderground v.1.15,2013-09-04 09:55:00,
2013-09-04 03:05:00,79.9,50.6,29.72,South,175,0.0,0.0,36,0.00,,,0.00,Wunderground v.1.15,2013-09-04 10:05:00,
2013-09-04 03:10:00,80.1,50.0,29.72,South,179,0.0,0.0,35,0.00,,,0.00,Wunderground v.1.15,2013-09-04 10:10:00,
2013-09-04 03:15:00,80.3,50.1,29.72,SW,229,0.0,0.0,35,0.00,,,0.00,Wunderground v.1.15,2013-09-04 10:15:00,
2013-09-04 03:20:00,80.3,50.1,29.72,SW,229,0.0,0.0,35,0.00,,,0.00,Wunderground v.1.15,2013-09-04 10:20:00,
2013-09-04 03:25:00,80.1,50.0,29.72,SW,229,0.0,0.0,35,0.00,,,0.00,Wunderground v.1.15,2013-09-04 10:25:00,
2013-09-04 03:30:00,79.6,51.0,29.72,SW,229,0.0,0.0,37,0.00,,,0.00,Wunderground v.1.15,2013-09-04 10:30:00,
2013-09-04 03:40:00,78.6,50.1,29.72,SSE,159,0.0,0.0,37,0.00,,,0.00,Wunderground v.1.15,2013-09-04 10:40:00,
2013-09-04 03:45:00,78.3,51.3,29.72,SE,130,0.0,0.0,39,0.00,,,0.00,Wunderground v.1.15,2013-09-04 10:45:00,
2013-09-04 03:50:00,77.9,51.6,29.72,SE,130,0.0,0.0,40,0.00,,,0.00,Wunderground v.1.15,2013-09-04 10:50:00,
2013-09-04 03:55:00,77.6,51.4,29.72,SE,128,0.0,0.0,40,0.00,,,0.00,Wunderground v.1.15,2013-09-04 10:55:00,
2013-09-04 04:00:00,77.4,51.2,29.72,SE,128,0.0,0.0,40,0.00,,,0.00,Wunderground v.1.15,2013-09-04 11:00:00,
2013-09-04 04:05:00,76.8,52.6,29.72,SE,128,0.0,0.0,43,0.00,,,0.00,Wunderground v.1.15,2013-09-04 11:05:00,
2013-09-04 04:15:00,76.5,53.0,29.72,SE,128,0.0,0.0,44,0.00,,,0.00,Wunderground v.1.15,2013-09-04 11:15:00,
2013-09-04 04:20:00,76.1,53.8,29.72,SE,128,0.0,0.0,46,0.00,,,0.00,Wunderground v.1.15,2013-09-04 11:20:00,
2013-09-04 04:25:00,76.0,53.1,29.72,SE,128,0.0,0.0,45,0.00,,,0.00,Wunderground v.1.15,2013-09-04 11:25:00,
2013-09-04 04:30:00,76.0,53.1,29.73,SE,128,0.0,0.0,45,0.00,,,0.00,Wunderground v.1.15,2013-09-04 11:30:00,
2013-09-04 04:35:00,75.8,52.9,29.73,SE,128,0.0,0.0,45,0.00,,,0.00,Wunderground v.1.15,2013-09-04 11:35:00,
2013-09-04 04:40:00,75.6,53.4,29.73,SE,128,0.0,0.0,46,0.00,,,0.00,Wunderground v.1.15,2013-09-04 11:40:00,
2013-09-04 04:45:00,75.4,52.6,29.73,SE,128,0.0,0.0,45,0.00,,,0.00,Wunderground v.1.15,2013-09-04 11:45:00,
2013-09-04 04:50:00,75.4,52.6,29.73,SE,128,0.0,0.0,45,0.00,,,0.00,Wunderground v.1.15,2013-09-04 11:50:00,
2013-09-04 05:00:00,75.3,52.5,29.73,SE,128,0.0,0.0,45,0.00,,,0.00,Wunderground v.1.15,2013-09-04 12:00:00,
2013-09-04 05:05:00,75.1,52.3,29.73,SE,130,0.0,0.0,45,0.00,,,0.00,Wunderground v.1.15,2013-09-04 12:05:00,
2013-09-04 05:10:00,75.1,52.3,29.73,SE,130,0.0,0.0,45,0.00,,,0.00,Wunderground v.1.15,2013-09-04 12:10:00,
2013-09-04 05:20:00,75.8,51.7,29.73,South,186,0.0,0.0,43,0.00,,,0.00,Wunderground v.1.15,2013-09-04 12:20:00,
2013-09-04 05:25:00,75.6,52.8,29.73,South,186,0.0,0.0,45,0.00,,,0.00,Wunderground v.1.15,2013-09-04 12:25:00,
2013-09-04 05:30:00,75.3,51.9,29.73,South,186,0.0,0.0,44,0.00,,,0.00,Wunderground v.1.15,2013-09-04 12:30:00,
2013-09-04 05:35:00,74.9,52.1,29.73,South,186,0.0,0.0,45,0.00,,,0.00,Wunderground v.1.15,2013-09-04 12:35:00,
2013-09-04 05:45:00,74.9,52.7,29.74,South,186,0.0,0.0,46,0.00,,,0.00,Wunderground v.1.15,2013-09-04 12:45:00,
2013-09-04 05:50:00,74.7,51.3,29.74,South,186,0.0,0.0,44,0.00,,,0.00,Wunderground v.1.15,2013-09-04 12:50:00,
2013-09-04 06:00:00,74.9,51.5,29.74,South,186,0.0,0.0,44,0.00,,,0.00,Wunderground v.1.15,2013-09-04 13:00:00,
2013-09-04 06:05:00,74.9,51.5,29.74,South,186,0.0,0.0,44,0.00,,,0.00,Wunderground v.1.15,2013-09-04 13:05:00,
2013-09-04 06:10:00,74.9,51.5,29.74,South,186,0.0,0.0,44,0.00,,,0.00,Wunderground v.1.15,2013-09-04 13:10:00,
2013-09-04 06:20:00,75.1,52.3,29.75,South,186,0.0,0.0,45,0.00,,,0.00,Wunderground v.1.15,2013-09-04 13:20:00,
2013-09-04 06:25:00,74.9,52.7,29.75,South,186,0.0,0.0,46,0.00,,,0.00,Wunderground v.1.15,2013-09-04 13:25:00,
2013-09-04 06:30:00,74.9,52.1,29.75,South,186,0.0,0.0,45,0.00,,,0.00,Wunderground v.1.15,2013-09-04 13:30:00,
2013-09-04 06:35:00,74.7,51.9,29.75,South,186,0.0,0.0,45,0.00,,,0.00,Wunderground v.1.15,2013-09-04 13:35:00,
2013-09-04 06:40:00,74.6,51.2,29.75,South,186,0.0,0.0,44,0.00,,,0.00,Wunderground v.1.15,2013-09-04 13:40:00,
2013-09-04 06:45:00,74.6,51.2,29.75,South,186,0.0,0.0,44,0.00,,,0.00,Wunderground v.1.15,2013-09-04 13:45:00,
2013-09-04 06:50:00,74.6,50.6,29.75,South,186,0.0,0.0,43,0.00,,,0.00,Wunderground v.1.15,2013-09-04 13:50:00,
2013-09-04 06:55:00,74.6,50.0,29.75,South,186,0.0,0.0,42,0.00,,,0.00,Wunderground v.1.15,2013-09-04 13:55:00,
2013-09-04 07:00:00,74.9,50.3,29.76,South,186,0.0,0.0,42,0.00,,,0.00,Wunderground v.1.15,2013-09-04 14:00:00,
2013-09-04 07:05:00,75.8,49.8,29.76,South,186,0.0,0.0,40,0.00,,,0.00,Wunderground v.1.15,2013-09-04 14:05:00,
2013-09-04 07:10:00,76.1,50.7,29.76,South,186,0.0,0.0,41,0.00,,,0.00,Wunderground v.1.15,2013-09-04 14:10:00,
2013-09-04 07:15:00,76.8,50.6,29.77,South,186,0.0,0.0,40,0.00,,,0.00,Wunderground v.1.15,2013-09-04 14:15:00,
2013-09-04 07:20:00,77.4,50.5,29.77,South,186,0.0,0.0,39,0.00,,,0.00,Wunderground v.1.15,2013-09-04 14:20:00,
2013-09-04 07:25:00,77.7,50.8,29.77,SW,228,0.0,0.0,39,0.00,,,0.00,Wunderground v.1.15,2013-09-04 14:25:00,
2013-09-04 07:30:00,78.3,52.7,29.77,WSW,243,0.0,0.0,41,0.00,,,0.00,Wunderground v.1.15,2013-09-04 14:30:00,
2013-09-04 07:40:00,79.0,52.6,29.77,WSW,253,0.0,0.0,40,0.00,,,0.00,Wunderground v.1.15,2013-09-04 14:40:00,
2013-09-04 07:45:00,79.6,52.5,29.78,WSW,253,0.0,0.0,39,0.00,,,0.00,Wunderground v.1.15,2013-09-04 14:45:00,
2013-09-04 07:50:00,80.1,52.9,29.78,WSW,253,0.0,0.0,39,0.00,,,0.00,Wunderground v.1.15,2013-09-04 14:50:00,
2013-09-04 07:55:00,80.7,54.1,29.78,WSW,253,0.0,0.0,40,0.00,,,0.00,Wunderground v.1.15,2013-09-04 14:55:00,
2013-09-04 08:00:00,81.6,54.2,29.78,WSW,253,0.0,0.0,39,0.00,,,0.00,Wunderground v.1.15,2013-09-04 15:00:00,
2013-09-04 08:05:00,83.2,56.4,29.78,WSW,253,0.0,0.0,40,0.00,,,0.00,Wunderground v.1.15,2013-09-04 15:05:00,
2013-09-04 08:15:00,84.3,53.7,29.78,WSW,253,0.0,0.0,35,0.00,,,0.00,Wunderground v.1.15,2013-09-04 15:15:00,
2013-09-04 08:25:00,85.1,51.1,29.78,WSW,253,0.0,0.0,31,0.00,,,0.00,Wunderground v.1.15,2013-09-04 15:25:00,
2013-09-04 08:30:00,85.3,50.4,29.78,WSW,253,0.0,0.0,30,0.00,,,0.00,Wunderground v.1.15,2013-09-04 15:30:00,
2013-09-04 08:35:00,85.5,51.4,29.78,WSW,253,0.0,0.0,31,0.00,,,0.00,Wunderground v.1.15,2013-09-04 15:35:00,
2013-09-04 08:40:00,85.7,50.7,29.78,WSW,254,0.0,0.0,30,0.00,,,0.00,Wunderground v.1.15,2013-09-04 15:40:00,
2013-09-04 08:45:00,85.7,50.7,29.79,NW,318,0.0,0.0,30,0.00,,,0.00,Wunderground v.1.15,2013-09-04 15:45:00,
2013-09-04 08:50:00,85.7,49.8,29.79,NE,49,0.0,0.0,29,0.00,,,0.00,Wunderground v.1.15,2013-09-04 15:50:00,
2013-09-04 08:55:00,85.9,51.8,29.79,NE,49,0.0,0.0,31,0.00,,,0.00,Wunderground v.1.15,2013-09-04 15:55:00,
2013-09-04 09:05:00,86.1,50.1,29.78,NE,34,0.0,0.0,29,0.00,,,0.00,Wunderground v.1.15,2013-09-04 16:05:00,
2013-09-04 09:10:00,86.1,51.0,29.78,NE,34,0.0,0.0,30,0.00,,,0.00,Wunderground v.1.15,2013-09-04 16:10:00,
2013-09-04 09:15:00,86.5,51.4,29.78,NE,34,0.0,0.0,30,0.00,,,0.00,Wunderground v.1.15,2013-09-04 16:15:00,
2013-09-04 09:20:00,87.2,52.0,29.78,NE,34,0.0,0.0,30,0.00,,,0.00,Wunderground v.1.15,2013-09-04 16:20:00,
2013-09-04 09:25:00,87.6,51.4,29.78,NE,34,0.0,0.0,29,0.00,,,0.00,Wunderground v.1.15,2013-09-04 16:25:00,
2013-09-04 09:30:00,88.2,51.9,29.79,NE,38,0.0,0.0,29,0.00,,,0.00,Wunderground v.1.15,2013-09-04 16:30:00,
2013-09-04 09:35:00,88.2,51.0,29.79,NE,38,0.0,0.0,28,0.00,,,0.00,Wunderground v.1.15,2013-09-04 16:35:00,
2013-09-04 09:40:00,88.4,50.2,29.79,NE,37,0.0,0.0,27,0.00,,,0.00,Wunderground v.1.15,2013-09-04 16:40:00,
2013-09-04 09:45:00,88.6,51.3,29.79,NE,37,0.0,0.0,28,0.00,,,0.00,Wunderground v.1.15,2013-09-04 16:45:00,
2013-09-04 09:50:00,89.3,51.9,29.79,NE,38,0.0,0.0,28,0.00,,,0.00,Wunderground v.1.15,2013-09-04 16:50:00,
2013-09-04 09:55:00,90.1,51.6,29.79,NE,37,0.0,0.0,27,0.00,,,0.00,Wunderground v.1.15,2013-09-04 16:55:00,
2013-09-04 10:00:00,90.1,50.6,29.79,NNE,31,0.0,0.0,26,0.00,,,0.00,Wunderground v.1.15,2013-09-04 17:00:00,
2013-09-04 10:05:00,90.5,50.9,29.79,ENE,67,0.0,0.0,26,0.00,,,0.00,Wunderground v.1.15,2013-09-04 17:05:00,
2013-09-04 10:15:00,91.4,50.6,29.78,East,93,0.0,0.0,25,0.00,,,0.00,Wunderground v.1.15,2013-09-04 17:15:00,
2013-09-04 10:20:00,91.4,51.7,29.78,NE,40,0.0,0.0,26,0.00,,,0.00,Wunderground v.1.15,2013-09-04 17:20:00,
2013-09-04 10:25:00,91.6,51.9,29.78,NE,52,0.0,1.0,26,0.00,,,0.00,Wunderground v.1.15,2013-09-04 17:25:00,
2013-09-04 10:30:00,92.1,52.3,29.78,East,94,0.0,0.0,26,0.00,,,0.00,Wunderground v.1.15,2013-09-04 17:30:00,
2013-09-04 10:35:00,92.7,51.7,29.78,ENE,76,0.0,2.0,25,0.00,,,0.00,Wunderground v.1.15,2013-09-04 17:35:00,
2013-09-04 10:40:00,93.2,52.1,29.78,ENE,69,0.0,0.0,25,0.00,,,0.00,Wunderground v.1.15,2013-09-04 17:40:00,
2013-09-04 10:45:00,93.6,49.0,29.78,SSW,209,0.0,0.0,22,0.00,,,0.00,Wunderground v.1.15,2013-09-04 17:45:00,
2013-09-04 10:50:00,94.0,50.6,29.78,SW,225,0.0,0.0,23,0.00,,,0.00,Wunderground v.1.15,2013-09-04 17:50:00,
2013-09-04 10:55:00,93.6,49.0,29.78,SW,234,1.0,5.0,22,0.00,,,0.00,Wunderground v.1.15,2013-09-04 17:55:00,
2013-09-04 11:00:00,93.6,49.0,29.77,SW,227,2.0,5.0,22,0.00,,,0.00,Wunderground v.1.15,2013-09-04 18:00:00,
2013-09-04 11:05:00,93.6,49.0,29.77,SSW,211,4.0,5.0,22,0.00,,,0.00,Wunderground v.1.15,2013-09-04 18:05:00,
2013-09-04 11:10:00,93.6,49.0,29.77,SW,227,4.0,5.0,22,0.00,,,0.00,Wunderground v.1.15,2013-09-04 18:10:00,
2013-09-04 11:15:00,93.8,48.0,29.77,SSW,209,3.0,7.0,21,0.00,,,0.00,Wunderground v.1.15,2013-09-04 18:15:00,
2013-09-04 11:20:00,94.0,48.1,29.77,SSW,211,4.0,11.0,21,0.00,,,0.00,Wunderground v.1.15,2013-09-04 18:20:00,
2013-09-04 11:25:00,94.3,47.1,29.77,SW,226,6.0,11.0,20,0.00,,,0.00,Wunderground v.1.15,2013-09-04 18:25:00,
2013-09-04 11:30:00,94.5,48.5,29.76,South,182,6.0,8.0,21,0.00,,,0.00,Wunderground v.1.15,2013-09-04 18:30:00,
2013-09-04 11:35:00,94.5,48.5,29.76,SSW,202,4.0,8.0,21,0.00,,,0.00,Wunderground v.1.15,2013-09-04 18:35:00,
2013-09-04 11:40:00,94.9,47.6,29.76,WSW,244,5.0,5.0,20,0.00,,,0.00,Wunderground v.1.15,2013-09-04 18:40:00,
2013-09-04 11:45:00,95.4,48.0,29.76,SW,233,4.0,6.0,20,0.00,,,0.00,Wunderground v.1.15,2013-09-04 18:45:00,
2013-09-04 11:50:00,95.4,46.6,29.76,SSW,206,5.0,5.0,19,0.00,,,0.00,Wunderground v.1.15,2013-09-04 18:50:00,
2013-09-04 11:55:00,95.6,48.1,29.76,SW,227,5.0,5.0,20,0.00,,,0.00,Wunderground v.1.15,2013-09-04 18:55:00,
2013-09-04 12:00:00,95.6,48.1,29.75,SW,223,3.0,7.0,20,0.00,,,0.00,Wunderground v.1.15,2013-09-04 19:00:00,
2013-09-04 12:05:00,95.6,48.1,29.75,WNW,293,3.0,7.0,20,0.00,,,0.00,Wunderground v.1.15,2013-09-04 19:05:00,
2013-09-04 12:15:00,96.6,47.6,29.75,WSW,253,3.0,4.0,19,0.00,,,0.00,Wunderground v.1.15,2013-09-04 19:15:00,
2013-09-04 12:20:00,96.6,44.6,29.75,SSW,207,2.0,6.0,17,0.00,,,0.00,Wunderground v.1.15,2013-09-04 19:20:00,
2013-09-04 12:25:00,96.3,45.9,29.75,SSW,206,3.0,6.0,18,0.00,,,0.00,Wunderground v.1.15,2013-09-04 19:25:00,
2013-09-04 12:30:00,96.6,47.6,29.75,WSW,238,3.0,3.0,19,0.00,,,0.00,Wunderground v.1.15,2013-09-04 19:30:00,
2013-09-04 12:35:00,96.8,47.7,29.75,West,265,3.0,3.0,19,0.00,,,0.00,Wunderground v.1.15,2013-09-04 19:35:00,
2013-09-04 12:40:00,97.5,45.4,29.75,SW,219,3.0,3.0,17,0.00,,,0.00,Wunderground v.1.15,2013-09-04 19:40:00,
2013-09-04 12:45:00,97.3,45.2,29.74,SSW,207,4.0,4.0,17,0.00,,,0.00,Wunderground v.1.15,2013-09-04 19:45:00,
2013-09-04 12:50:00,97.3,45.2,29.74,WSW,258,3.0,4.0,17,0.00,,,0.00,Wunderground v.1.15,2013-09-04 19:50:00,
2013-09-04 12:55:00,97.5,46.9,29.74,WSW,247,3.0,5.0,18,0.00,,,0.00,Wunderground v.1.15,2013-09-04 19:55:00,
2013-09-04 13:00:00,97.5,45.4,29.74,SW,231,4.0,4.0,17,0.00,,,0.00,Wunderground v.1.15,2013-09-04 20:00:00,
2013-09-04 13:05:00,97.8,47.1,29.74,SW,223,3.0,4.0,18,0.00,,,0.00,Wunderground v.1.15,2013-09-04 20:05:00,
2013-09-04 13:10:00,98.2,45.9,29.74,South,183,2.0,2.0,17,0.00,,,0.00,Wunderground v.1.15,2013-09-04 20:10:00,
2013-09-04 13:15:00,98.0,45.8,29.73,SW,215,2.0,4.0,17,0.00,,,0.00,Wunderground v.1.15,2013-09-04 20:15:00,
2013-09-04 13:20:00,98.2,45.9,29.73,SW,225,4.0,5.0,17,0.00,,,0.00,Wunderground v.1.15,2013-09-04 20:20:00,
2013-09-04 13:25:00,98.2,48.9,29.73,SSW,212,2.0,5.0,19,0.00,,,0.00,Wunderground v.1.15,2013-09-04 20:25:00,
2013-09-04 13:30:00,98.5,44.6,29.73,SW,227,2.0,3.0,16,0.00,,,0.00,Wunderground v.1.15,2013-09-04 20:30:00,
2013-09-04 13:40:00,98.7,44.7,29.73,SW,216,2.0,2.0,16,0.00,,,0.00,Wunderground v.1.15,2013-09-04 20:40:00,
2013-09-04 13:45:00,99.2,43.4,29.72,SW,229,2.0,2.0,15,0.00,,,0.00,Wunderground v.1.15,2013-09-04 20:45:00,
2013-09-04 13:55:00,99.4,43.6,29.72,SSW,208,3.0,5.0,15,0.00,,,0.00,Wunderground v.1.15,2013-09-04 20:55:00,
2013-09-04 14:00:00,99.4,43.6,29.72,SW,217,3.0,3.0,15,0.00,,,0.00,Wunderground v.1.15,2013-09-04 21:00:00,
2013-09-04 14:05:00,99.7,43.8,29.72,SW,222,2.0,3.0,15,0.00,,,0.00,Wunderground v.1.15,2013-09-04 21:05:00,
2013-09-04 14:10:00,99.7,42.0,29.72,SSW,203,3.0,4.0,14,0.00,,,0.00,Wunderground v.1.15,2013-09-04 21:10:00,
2013-09-04 14:15:00,99.2,43.4,29.71,SSW,196,4.0,4.0,15,0.00,,,0.00,Wunderground v.1.15,2013-09-04 21:15:00,
2013-09-04 14:20:00,99.2,45.1,29.71,SW,233,4.0,4.0,16,0.00,,,0.00,Wunderground v.1.15,2013-09-04 21:20:00,
2013-09-04 14:25:00,100.4,44.4,29.71,SSW,201,3.0,7.0,15,0.00,,,0.00,Wunderground v.1.15,2013-09-04 21:25:00,
2013-09-04 14:30:00,100.7,42.8,29.70,WSW,245,3.0,4.0,14,0.00,,,0.00,Wunderground v.1.15,2013-09-04 21:30:00,
2013-09-04 14:35:00,100.4,44.4,29.70,SSE,151,5.0,5.0,15,0.00,,,0.00,Wunderground v.1.15,2013-09-04 21:35:00,
2013-09-04 14:45:00,99.9,44.0,29.69,SSW,210,2.0,5.0,15,0.00,,,0.00,Wunderground v.1.15,2013-09-04 21:45:00,
2013-09-04 14:55:00,100.2,44.2,29.69,SW,225,5.0,7.0,15,0.00,,,0.00,Wunderground v.1.15,2013-09-04 21:55:00,
2013-09-04 15:00:00,100.2,44.2,29.69,SW,216,5.0,5.0,15,0.00,,,0.00,Wunderground v.1.15,2013-09-04 22:00:00,
2013-09-04 15:05:00,100.4,44.4,29.69,SSW,193,4.0,5.0,15,0.00,,,0.00,Wunderground v.1.15,2013-09-04 22:05:00,
2013-09-04 15:10:00,100.7,46.3,29.69,ESE,113,2.0,2.0,16,0.00,,,0.00,Wunderground v.1.15,2013-09-04 22:10:00,
2013-09-04 15:15:00,101.0,43.0,29.68,SW,232,2.0,9.0,14,0.00,,,0.00,Wunderground v.1.15,2013-09-04 22:15:00,
2013-09-04 15:20:00,100.4,42.6,29.68,West,266,6.0,7.0,14,0.00,,,0.00,Wunderground v.1.15,2013-09-04 22:20:00,
2013-09-04 15:25:00,100.4,44.4,29.68,SSW,194,7.0,10.0,15,0.00,,,0.00,Wunderground v.1.15,2013-09-04 22:25:00,
2013-09-04 15:30:00,100.7,42.8,29.67,SSW,194,5.0,5.0,14,0.00,,,0.00,Wunderground v.1.15,2013-09-04 22:30:00,
2013-09-04 15:35:00,100.7,42.8,29.67,SSW,209,4.0,5.0,14,0.00,,,0.00,Wunderground v.1.15,2013-09-04 22:35:00,
2013-09-04 15:40:00,101.0,44.9,29.67,SW,219,4.0,4.0,15,0.00,,,0.00,Wunderground v.1.15,2013-09-04 22:40:00,
2013-09-04 15:45:00,101.2,43.2,29.67,SSW,207,2.0,4.0,14,0.00,,,0.00,Wunderground v.1.15,2013-09-04 22:45:00,
2013-09-04 15:50:00,101.2,43.2,29.67,SW,216,2.0,3.0,14,0.00,,,0.00,Wunderground v.1.15,2013-09-04 22:50:00,
2013-09-04 15:55:00,101.0,43.0,29.67,West,261,5.0,5.0,14,0.00,,,0.00,Wunderground v.1.15,2013-09-04 22:55:00,
2013-09-04 16:00:00,101.0,43.0,29.67,SSW,198,4.0,4.0,14,0.00,,,0.00,Wunderground v.1.15,2013-09-04 23:00:00,
2013-09-04 16:05:00,100.4,40.7,29.67,SW,214,3.0,7.0,13,0.00,,,0.00,Wunderground v.1.15,2013-09-04 23:05:00,
2013-09-04 16:10:00,100.4,44.4,29.67,SW,234,4.0,4.0,15,0.00,,,0.00,Wunderground v.1.15,2013-09-04 23:10:00,
2013-09-04 16:15:00,100.7,42.8,29.66,WSW,241,4.0,7.0,14,0.00,,,0.00,Wunderground v.1.15,2013-09-04 23:15:00,
2013-09-04 16:20:00,101.0,41.1,29.66,SW,216,5.0,11.0,13,0.00,,,0.00,Wunderground v.1.15,2013-09-04 23:20:00,
2013-09-04 16:25:00,100.7,42.8,29.66,WSW,250,7.0,11.0,14,0.00,,,0.00,Wunderground v.1.15,2013-09-04 23:25:00,
2013-09-04 16:30:00,101.0,43.0,29.65,WSW,239,5.0,5.0,14,0.00,,,0.00,Wunderground v.1.15,2013-09-04 23:30:00,
2013-09-04 16:35:00,101.0,46.6,29.65,SW,219,4.0,5.0,16,0.00,,,0.00,Wunderground v.1.15,2013-09-04 23:35:00,
2013-09-04 16:40:00,100.7,44.6,29.65,SW,228,5.0,5.0,15,0.00,,,0.00,Wunderground v.1.15,2013-09-04 23:40:00,
2013-09-04 16:45:00,100.2,44.2,29.65,SW,215,4.0,5.0,15,0.00,,,0.00,Wunderground v.1.15,2013-09-04 23:45:00,
2013-09-04 16:55:00,98.7,44.7,29.65,SSE,157,2.0,3.0,16,0.00,,,0.00,Wunderground v.1.15,2013-09-04 23:55:00,
2013-09-04 17:00:00,98.5,46.2,29.66,SSW,209,1.0,1.0,17,0.00,,,0.00,Wunderground v.1.15,2013-09-05 00:00:00,
2013-09-04 17:05:00,99.0,45.0,29.66,SSW,192,0.0,1.0,16,0.00,,,0.00,Wunderground v.1.15,2013-09-05 00:05:00,
2013-09-04 17:10:00,98.5,44.6,29.66,SSW,201,2.0,4.0,16,0.00,,,0.00,Wunderground v.1.15,2013-09-05 00:10:00,
2013-09-04 17:15:00,98.2,44.3,29.66,SSW,213,3.0,4.0,16,0.00,,,0.00,Wunderground v.1.15,2013-09-05 00:15:00,
2013-09-04 17:20:00,98.0,45.8,29.66,SW,220,1.0,1.0,17,0.00,,,0.00,Wunderground v.1.15,2013-09-05 00:20:00,
2013-09-04 17:25:00,98.2,45.9,29.66,SSW,209,0.0,4.0,17,0.00,,,0.00,Wunderground v.1.15,2013-09-05 00:25:00,
2013-09-04 17:30:00,99.2,46.7,29.66,SSE,153,1.0,5.0,17,0.00,,,0.00,Wunderground v.1.15,2013-09-05 00:30:00,
2013-09-04 17:35:00,98.5,54.3,29.66,ESE,115,2.0,5.0,23,0.00,,,0.00,Wunderground v.1.15,2013-09-05 00:35:00,
2013-09-04 17:45:00,96.1,54.6,29.65,SE,127,1.0,2.0,25,0.00,,,0.00,Wunderground v.1.15,2013-09-05 00:45:00,
2013-09-04 17:50:00,95.6,53.1,29.65,SE,133,1.0,1.0,24,0.00,,,0.00,Wunderground v.1.15,2013-09-05 00:50:00,
2013-09-04 17:55:00,95.6,53.1,29.65,SE,139,1.0,1.0,24,0.00,,,0.00,Wunderground v.1.15,2013-09-05 00:55:00,
2013-09-04 18:00:00,95.4,51.7,29.65,SE,132,1.0,1.0,23,0.00,,,0.00,Wunderground v.1.15,2013-09-05 01:00:00,
2013-09-04 18:05:00,95.4,51.7,29.65,ESE,119,0.0,1.0,23,0.00,,,0.00,Wunderground v.1.15,2013-09-05 01:05:00,
2013-09-04 18:10:00,95.4,51.7,29.65,SE,146,0.0,0.0,23,0.00,,,0.00,Wunderground v.1.15,2013-09-05 01:10:00,
2013-09-04 18:15:00,95.1,51.5,29.65,WSW,254,0.0,0.0,23,0.00,,,0.00,Wunderground v.1.15,2013-09-05 01:15:00,
2013-09-04 18:20:00,94.7,51.1,29.65,SSE,166,0.0,0.0,23,0.00,,,0.00,Wunderground v.1.15,2013-09-05 01:20:00,
2013-09-04 18:25:00,94.3,49.6,29.65,SW,225,0.0,0.0,22,0.00,,,0.00,Wunderground v.1.15,2013-09-05 01:25:00,
2013-09-04 18:30:00,94.0,49.4,29.64,South,183,0.0,0.0,22,0.00,,,0.00,Wunderground v.1.15,2013-09-05 01:30:00,
2013-09-04 18:35:00,94.3,45.7,29.64,SSW,193,0.0,0.0,19,0.00,,,0.00,Wunderground v.1.15,2013-09-05 01:35:00,
2013-09-04 18:40:00,94.3,45.7,29.64,SSW,207,0.0,0.0,19,0.00,,,0.00,Wunderground v.1.15,2013-09-05 01:40:00,
2013-09-04 19:00:00,92.9,45.9,29.65,South,178,0.0,0.0,20,0.00,,,0.00,Wunderground v.1.15,2013-09-05 02:00:00,
2013-09-04 19:05:00,92.5,45.6,29.65,SE,136,0.0,0.0,20,0.00,,,0.00,Wunderground v.1.15,2013-09-05 02:05:00,
2013-09-04 19:10:00,92.3,45.4,29.65,SE,136,0.0,0.0,20,0.00,,,0.00,Wunderground v.1.15,2013-09-05 02:10:00,
2013-09-04 19:15:00,91.8,45.0,29.66,East,97,0.0,0.0,20,0.00,,,0.00,Wunderground v.1.15,2013-09-05 02:15:00,
2013-09-04 19:20:00,91.6,44.9,29.66,South,182,0.0,0.0,20,0.00,,,0.00,Wunderground v.1.15,2013-09-05 02:20:00,
2013-09-04 19:25:00,92.3,45.4,29.66,South,186,0.0,0.0,20,0.00,,,0.00,Wunderground v.1.15,2013-09-05 02:25:00,
2013-09-04 19:30:00,92.9,47.2,29.67,SW,233,1.0,4.0,21,0.00,,,0.00,Wunderground v.1.15,2013-09-05 02:30:00,
2013-09-04 19:35:00,92.9,47.2,29.67,SSW,201,1.0,4.0,21,0.00,,,0.00,Wunderground v.1.15,2013-09-05 02:35:00,
2013-09-04 19:40:00,92.9,47.2,29.67,SSW,200,2.0,2.0,21,0.00,,,0.00,Wunderground v.1.15,2013-09-05 02:40:00,
2013-09-04 19:45:00,92.7,45.8,29.67,SSW,208,1.0,2.0,20,0.00,,,0.00,Wunderground v.1.15,2013-09-05 02:45:00,
2013-09-04 19:50:00,92.3,46.7,29.67,South,178,0.0,0.0,21,0.00,,,0.00,Wunderground v.1.15,2013-09-05 02:50:00,
2013-09-04 20:00:00,91.0,45.6,29.68,SSW,195,0.0,0.0,21,0.00,,,0.00,Wunderground v.1.15,2013-09-05 03:00:00,
2013-09-04 20:05:00,90.5,46.5,29.68,South,188,0.0,0.0,22,0.00,,,0.00,Wunderground v.1.15,2013-09-05 03:05:00,
2013-09-04 20:10:00,90.3,46.3,29.68,SSW,202,0.0,0.0,22,0.00,,,0.00,Wunderground v.1.15,2013-09-05 03:10:00,
2013-09-04 20:15:00,90.1,47.3,29.68,SSW,203,0.0,0.0,23,0.00,,,0.00,Wunderground v.1.15,2013-09-05 03:15:00,
2013-09-04 20:20:00,89.9,47.1,29.68,SSW,205,0.0,0.0,23,0.00,,,0.00,Wunderground v.1.15,2013-09-05 03:20:00,
2013-09-04 20:25:00,89.7,47.0,29.68,SSW,213,0.0,0.0,23,0.00,,,0.00,Wunderground v.1.15,2013-09-05 03:25:00,
2013-09-04 20:30:00,89.7,48.1,29.68,SSW,198,0.0,0.0,24,0.00,,,0.00,Wunderground v.1.15,2013-09-05 03:30:00,
2013-09-04 20:35:00,89.5,47.9,29.68,SW,226,0.0,0.0,24,0.00,,,0.00,Wunderground v.1.15,2013-09-05 03:35:00,
2013-09-04 20:40:00,89.3,48.9,29.68,SSW,202,0.0,0.0,25,0.00,,,0.00,Wunderground v.1.15,2013-09-05 03:40:00,
2013-09-04 20:45:00,89.0,48.6,29.69,SE,135,0.0,0.0,25,0.00,,,0.00,Wunderground v.1.15,2013-09-05 03:45:00,
2013-09-04 20:50:00,89.0,49.7,29.69,SSW,203,0.0,0.0,26,0.00,,,0.00,Wunderground v.1.15,2013-09-05 03:50:00,
2013-09-04 20:55:00,89.0,49.7,29.69,SSW,210,0.0,0.0,26,0.00,,,0.00,Wunderground v.1.15,2013-09-05 03:55:00,
2013-09-04 21:00:00,88.8,50.5,29.70,SSW,201,0.0,0.0,27,0.00,,,0.00,Wunderground v.1.15,2013-09-05 04:00:00,
2013-09-04 21:05:00,88.8,50.5,29.70,SSW,203,0.0,0.0,27,0.00,,,0.00,Wunderground v.1.15,2013-09-05 04:05:00,
2013-09-04 21:10:00,88.6,50.3,29.70,SSW,204,0.0,0.0,27,0.00,,,0.00,Wunderground v.1.15,2013-09-05 04:10:00,
2013-09-04 21:15:00,88.4,51.1,29.70,SSW,202,0.0,0.0,28,0.00,,,0.00,Wunderground v.1.15,2013-09-05 04:15:00,
2013-09-04 21:20:00,88.4,51.1,29.70,South,189,0.0,0.0,28,0.00,,,0.00,Wunderground v.1.15,2013-09-05 04:20:00,
2013-09-04 21:30:00,88.2,50.0,29.70,SW,220,0.0,0.0,27,0.00,,,0.00,Wunderground v.1.15,2013-09-05 04:30:00,
2013-09-04 21:35:00,88.4,51.1,29.70,SSW,209,0.0,2.0,28,0.00,,,0.00,Wunderground v.1.15,2013-09-05 04:35:00,
2013-09-04 21:40:00,88.4,51.1,29.70,South,190,0.0,0.0,28,0.00,,,0.00,Wunderground v.1.15,2013-09-05 04:40:00,
2013-09-04 21:45:00,88.6,50.3,29.70,SSW,200,0.0,0.0,27,0.00,,,0.00,Wunderground v.1.15,2013-09-05 04:45:00,
2013-09-04 21:50:00,88.6,51.3,29.70,South,181,0.0,6.0,28,0.00,,,0.00,Wunderground v.1.15,2013-09-05 04:50:00,
2013-09-04 22:00:00,88.6,51.3,29.70,SSW,211,2.0,2.0,28,0.00,,,0.00,Wunderground v.1.15,2013-09-05 05:00:00,
2013-09-04 22:05:00,88.6,51.3,29.70,South,187,2.0,2.0,28,0.00,,,0.00,Wunderground v.1.15,2013-09-05 05:05:00,
2013-09-04 22:10:00,88.4,51.1,29.70,SSW,207,2.0,2.0,28,0.00,,,0.00,Wunderground v.1.15,2013-09-05 05:10:00,
2013-09-04 22:15:00,88.2,51.0,29.70,SSW,207,2.0,2.0,28,0.00,,,0.00,Wunderground v.1.15,2013-09-05 05:15:00,
2013-09-04 22:20:00,88.0,50.8,29.70,SSW,213,0.0,1.0,28,0.00,,,0.00,Wunderground v.1.15,2013-09-05 05:20:00,
2013-09-04 22:25:00,87.8,50.6,29.70,SSW,200,0.0,1.0,28,0.00,,,0.00,Wunderground v.1.15,2013-09-05 05:25:00,
2013-09-04 22:30:00,87.6,50.5,29.71,WSW,238,0.0,0.0,28,0.00,,,0.00,Wunderground v.1.15,2013-09-05 05:30:00,
2013-09-04 22:40:00,87.0,50.0,29.71,SW,229,0.0,0.0,28,0.00,,,0.00,Wunderground v.1.15,2013-09-05 05:40:00,
2013-09-04 22:45:00,86.7,48.7,29.71,SW,229,0.0,0.0,27,0.00,,,0.00,Wunderground v.1.15,2013-09-05 05:45:00,
2013-09-04 22:50:00,86.5,49.5,29.71,SW,223,0.0,0.0,28,0.00,,,0.00,Wunderground v.1.15,2013-09-05 05:50:00,
2013-09-04 22:55:00,86.5,49.5,29.71,SW,223,0.0,0.0,28,0.00,,,0.00,Wunderground v.1.15,2013-09-05 05:55:00,